FCYRRS OPMF-VIBR

Flight info

Callsign FCYRRS
Flight time 1h 2m
Altitude 14000
Route DRT
Aircraft C208/L-SDE3/L

Departure

Time 2026-05-06 19:01
Airport Muzaffarabad Airport (OPMF)

Arrival

Time 2026-05-06 20:03
Airport Kullu Manali Airport (VIBR)
Time Latitude Longitude Altitude Speed Heading
2026-05-06 18:49 34.33702 73.51081 2686 ft 2 kts 313°
2026-05-06 18:50 34.33715 73.51083 2686 ft 5 kts 98°
2026-05-06 18:50 34.33661 73.51135 2689 ft 14 kts 154°
2026-05-06 18:50 34.33627 73.51184 2691 ft 0 kts 12°
2026-05-06 18:50 34.33628 73.51185 2691 ft 2 kts 12°
2026-05-06 18:51 34.33637 73.51187 2691 ft 0 kts 358°
2026-05-06 18:51 34.33662 73.51114 2689 ft 31 kts 303°
2026-05-06 18:52 34.33858 73.50892 2680 ft 26 kts 295°
2026-05-06 18:52 34.33927 73.50763 2677 ft 15 kts 310°
2026-05-06 18:52 34.34019 73.50635 2677 ft 26 kts 312°
2026-05-06 18:52 34.34076 73.50560 2677 ft 9 kts 313°
2026-05-06 18:53 34.34107 73.50519 2674 ft 5 kts 313°
2026-05-06 18:53 34.34125 73.50496 2674 ft 0 kts 340°
2026-05-06 18:53 34.34127 73.50495 2674 ft 0 kts 349°
2026-05-06 18:53 34.34128 73.50494 2674 ft 1 kts
2026-05-06 18:54 34.34131 73.50494 2680 ft 0 kts 25°
2026-05-06 18:54 34.34135 73.50497 2680 ft 0 kts 36°
2026-05-06 18:56 34.34137 73.50498 2680 ft 1 kts 44°
2026-05-06 18:56 34.34140 73.50506 2674 ft 2 kts 74°
2026-05-06 18:56 34.34134 73.50541 2674 ft 15 kts 120°
2026-05-06 18:56 34.33949 73.50791 2677 ft 57 kts 152°
2026-05-06 18:57 34.33769 73.51028 2683 ft 20 kts 166°
2026-05-06 18:57 34.33706 73.51048 2686 ft 0 kts 159°
2026-05-06 18:59 34.33701 73.51052 2680 ft 9 kts 135°
2026-05-06 18:59 34.33728 73.51084 2679 ft 17 kts 315°
2026-05-06 18:59 34.33950 73.50753 2672 ft 42 kts 309°
2026-05-06 19:00 34.34069 73.50550 2671 ft 25 kts 309°
2026-05-06 19:00 34.34141 73.50492 2668 ft 2 kts 32°
2026-05-06 19:00 34.34012 73.50712 2670 ft 78 kts 131°
2026-05-06 19:00 34.33682 73.51159 2703 ft 126 kts 132°
2026-05-06 19:01 34.32826 73.52176 3523 ft 125 kts 144°
2026-05-06 19:01 34.32082 73.52772 4100 ft 133 kts 149°
2026-05-06 19:01 34.31289 73.53359 4695 ft 133 kts 149°
2026-05-06 19:01 34.30503 73.53915 5331 ft 129 kts 151°
2026-05-06 19:02 34.29726 73.54450 5989 ft 127 kts 151°
2026-05-06 19:02 34.28961 73.54979 6584 ft 128 kts 150°
2026-05-06 19:02 34.28141 73.55522 6954 ft 141 kts 154°
2026-05-06 19:02 34.27221 73.56057 7243 ft 153 kts 155°
2026-05-06 19:03 34.26234 73.56621 7459 ft 160 kts 155°
2026-05-06 19:03 34.25224 73.57166 7807 ft 155 kts 158°
2026-05-06 19:03 34.24577 73.57488 8143 ft 149 kts 158°
2026-05-06 19:03 34.23303 73.58144 8657 ft 151 kts 158°
2026-05-06 19:04 34.22659 73.58491 8841 ft 156 kts 155°
2026-05-06 19:04 34.21657 73.59071 9018 ft 166 kts 156°
2026-05-06 19:04 34.20561 73.59654 9248 ft 176 kts 156°
2026-05-06 19:04 34.18314 73.60741 9568 ft 184 kts 161°
2026-05-06 19:05 34.16028 73.61668 10498 ft 165 kts 162°
2026-05-06 19:05 34.13948 73.62517 11495 ft 155 kts 160°
2026-05-06 19:05 34.11928 73.63487 12274 ft 159 kts 158°
2026-05-06 19:05 34.09809 73.64664 12642 ft 178 kts 154°
2026-05-06 19:06 34.07414 73.65970 12542 ft 197 kts 155°
2026-05-06 19:06 34.04947 73.67595 12412 ft 197 kts 148°
2026-05-06 19:06 34.03178 73.69868 12745 ft 190 kts 139°
2026-05-06 19:06 34.00719 73.71516 12106 ft 215 kts 156°
2026-05-06 19:07 33.97879 73.72992 10991 ft 228 kts 157°
2026-05-06 19:07 33.95345 73.74301 10036 ft 228 kts 157°
2026-05-06 19:07 33.92805 73.75608 9148 ft 227 kts 157°
2026-05-06 19:07 33.91354 73.76351 8671 ft 226 kts 157°
2026-05-06 19:08 33.89927 73.77085 8223 ft 226 kts 157°
2026-05-06 19:08 33.88486 73.77832 7758 ft 226 kts 157°
2026-05-06 19:08 33.87060 73.78567 7590 ft 212 kts 157°
2026-05-06 19:08 33.85842 73.79195 8406 ft 167 kts 157°
2026-05-06 19:09 33.84897 73.79820 9196 ft 150 kts 130°
2026-05-06 19:09 33.84480 73.80922 9861 ft 142 kts 109°
2026-05-06 19:09 33.84143 73.82025 10443 ft 139 kts 111°
2026-05-06 19:09 33.83790 73.83128 10849 ft 152 kts 111°
2026-05-06 19:10 33.83369 73.84443 10813 ft 180 kts 111°
2026-05-06 19:10 33.82898 73.85903 10812 ft 192 kts 111°
2026-05-06 19:10 33.82408 73.87407 10939 ft 190 kts 111°
2026-05-06 19:10 33.81931 73.88860 11220 ft 184 kts 112°
2026-05-06 19:11 33.81463 73.90278 11491 ft 181 kts 111°
2026-05-06 19:11 33.81004 73.91678 11761 ft 179 kts 111°
2026-05-06 19:11 33.80547 73.93063 12028 ft 177 kts 111°
2026-05-06 19:11 33.80096 73.94439 12301 ft 177 kts 111°
2026-05-06 19:12 33.79646 73.95810 12572 ft 176 kts 111°
2026-05-06 19:12 33.79197 73.97176 12844 ft 176 kts 111°
2026-05-06 19:12 33.78751 73.98536 13111 ft 174 kts 111°
2026-05-06 19:12 33.78237 73.99849 13379 ft 173 kts 122°
2026-05-06 19:13 33.77529 74.01005 13649 ft 171 kts 129°
2026-05-06 19:13 33.76789 74.02123 13920 ft 170 kts 129°
2026-05-06 19:13 33.76056 74.03235 14191 ft 170 kts 129°
2026-05-06 19:13 33.74755 74.05210 14673 ft 169 kts 129°
2026-05-06 19:14 33.73301 74.07419 15218 ft 168 kts 129°
2026-05-06 19:14 33.71859 74.09610 15758 ft 166 kts 129°
2026-05-06 19:14 33.70435 74.11775 16298 ft 164 kts 129°
2026-05-06 19:14 33.68973 74.13997 16505 ft 179 kts 128°
2026-05-06 19:15 33.68069 74.15373 16510 ft 186 kts 128°
2026-05-06 19:15 33.67268 74.16588 16512 ft 189 kts 129°
2026-05-06 19:15 33.66446 74.17836 16510 ft 191 kts 129°
2026-05-06 19:15 33.65621 74.19088 16508 ft 192 kts 128°
2026-05-06 19:16 33.64791 74.20347 16508 ft 192 kts 129°
2026-05-06 19:16 33.63969 74.21612 16506 ft 193 kts 126°
2026-05-06 19:16 33.63257 74.22973 16510 ft 193 kts 120°
2026-05-06 19:16 33.62599 74.24376 16509 ft 193 kts 119°
2026-05-06 19:17 33.61953 74.25788 16509 ft 193 kts 119°
2026-05-06 19:17 33.61311 74.27204 16507 ft 193 kts 118°
2026-05-06 19:17 33.60671 74.28621 16507 ft 193 kts 118°
2026-05-06 19:17 33.60033 74.30034 16508 ft 193 kts 118°
2026-05-06 19:18 33.59394 74.31449 16507 ft 193 kts 118°
2026-05-06 19:18 33.58754 74.32866 16506 ft 193 kts 118°
2026-05-06 19:18 33.58117 74.34281 16506 ft 193 kts 118°
2026-05-06 19:18 33.57477 74.35699 16506 ft 193 kts 118°
2026-05-06 19:19 33.56837 74.37121 16506 ft 194 kts 118°
2026-05-06 19:19 33.56197 74.38541 16208 ft 193 kts 116°
2026-05-06 19:19 33.55527 74.39909 16335 ft 189 kts 118°
2026-05-06 19:19 33.54818 74.41224 16456 ft 187 kts 118°
2026-05-06 19:20 33.54107 74.42532 16503 ft 189 kts 118°
2026-05-06 19:20 33.53386 74.43864 16506 ft 191 kts 119°
2026-05-06 19:20 33.52672 74.45204 16505 ft 190 kts 118°
2026-05-06 19:20 33.51962 74.46541 16510 ft 191 kts 118°
2026-05-06 19:21 33.51239 74.47882 16513 ft 193 kts 119°
2026-05-06 19:21 33.50510 74.49233 16509 ft 193 kts 118°
2026-05-06 19:21 33.49782 74.50581 16512 ft 193 kts 118°
2026-05-06 19:21 33.49053 74.51937 16511 ft 194 kts 118°
2026-05-06 19:22 33.48321 74.53294 16512 ft 193 kts 118°
2026-05-06 19:22 33.47587 74.54648 16519 ft 195 kts 118°
2026-05-06 19:22 33.46861 74.56001 16513 ft 196 kts 118°
2026-05-06 19:22 33.46135 74.57366 16510 ft 193 kts 118°
2026-05-06 19:23 33.45417 74.58716 16506 ft 192 kts 118°
2026-05-06 19:23 33.44693 74.60071 16507 ft 194 kts 118°
2026-05-06 19:23 33.43968 74.61426 16502 ft 192 kts 118°
2026-05-06 19:23 33.43250 74.62771 16501 ft 191 kts 118°
2026-05-06 19:24 33.42534 74.64120 16503 ft 193 kts 118°
2026-05-06 19:24 33.41813 74.65479 16505 ft 194 kts 118°
2026-05-06 19:24 33.41089 74.66838 16496 ft 193 kts 118°
2026-05-06 19:24 33.40371 74.68188 16496 ft 192 kts 118°
2026-05-06 19:25 33.39653 74.69534 16498 ft 192 kts 118°
2026-05-06 19:25 33.38935 74.70883 16498 ft 192 kts 118°
2026-05-06 19:25 33.38218 74.72234 16495 ft 192 kts 118°
2026-05-06 19:25 33.37501 74.73589 16497 ft 193 kts 118°
2026-05-06 19:26 33.36786 74.74936 16484 ft 190 kts 118°
2026-05-06 19:26 33.36079 74.76268 16486 ft 189 kts 118°
2026-05-06 19:26 33.35373 74.77605 16489 ft 191 kts 118°
2026-05-06 19:26 33.34664 74.78956 16485 ft 192 kts 118°
2026-05-06 19:27 33.33952 74.80304 16487 ft 192 kts 118°
2026-05-06 19:27 33.33239 74.81653 16486 ft 192 kts 118°
2026-05-06 19:27 33.32529 74.82993 16484 ft 190 kts 118°
2026-05-06 19:27 33.31654 74.84180 16483 ft 196 kts 146°
2026-05-06 19:28 33.30371 74.84529 16471 ft 184 kts 181°
2026-05-06 19:28 33.29154 74.84462 16453 ft 171 kts 179°
2026-05-06 19:28 33.27977 74.84428 16452 ft 164 kts 179°
2026-05-06 19:28 33.26875 74.84414 16445 ft 157 kts 178°
2026-05-06 19:29 33.25765 74.84412 16184 ft 161 kts 179°
2026-05-06 19:29 33.24565 74.84411 15879 ft 182 kts 178°
2026-05-06 19:29 33.23260 74.84418 15595 ft 192 kts 179°
2026-05-06 19:29 33.21897 74.84429 15306 ft 199 kts 179°
2026-05-06 19:30 33.20504 74.84448 15015 ft 201 kts 178°
2026-05-06 19:30 33.19092 74.84477 14715 ft 204 kts 178°
2026-05-06 19:30 33.17673 74.84504 14415 ft 204 kts 179°
2026-05-06 19:30 33.16252 74.84535 14113 ft 205 kts 179°
2026-05-06 19:31 33.14817 74.84571 13815 ft 207 kts 179°
2026-05-06 19:31 33.13375 74.84613 13501 ft 208 kts 179°
2026-05-06 19:31 33.10525 74.84940 12830 ft 203 kts 156°
2026-05-06 19:32 33.09253 74.85675 12523 ft 203 kts 152°
2026-05-06 19:32 33.08036 74.86414 12719 ft 191 kts 153°
2026-05-06 19:32 33.06874 74.87130 12608 ft 185 kts 153°
2026-05-06 19:32 33.05759 74.87816 12598 ft 177 kts 153°
2026-05-06 19:33 33.04674 74.88479 12589 ft 174 kts 153°
2026-05-06 19:33 33.03602 74.89126 12590 ft 172 kts 155°
2026-05-06 19:33 33.02564 74.89814 12593 ft 171 kts 144°
2026-05-06 19:33 33.01633 74.90691 12592 ft 170 kts 141°
2026-05-06 19:34 33.00725 74.91602 12591 ft 171 kts 140°
2026-05-06 19:34 32.99822 74.92525 12592 ft 171 kts 140°
2026-05-06 19:34 32.98880 74.93495 12606 ft 185 kts 139°
2026-05-06 19:34 32.97884 74.94520 12611 ft 192 kts 139°
2026-05-06 19:35 32.96866 74.95570 12611 ft 195 kts 139°
2026-05-06 19:35 32.95836 74.96635 12611 ft 196 kts 139°
2026-05-06 19:35 32.94803 74.97702 12611 ft 197 kts 139°
2026-05-06 19:35 32.93766 74.98772 12610 ft 197 kts 139°
2026-05-06 19:36 32.92728 74.99845 12609 ft 198 kts 139°
2026-05-06 19:36 32.91689 75.00920 12608 ft 198 kts 139°
2026-05-06 19:36 32.90654 75.01991 12608 ft 197 kts 139°
2026-05-06 19:36 32.89619 75.03063 12610 ft 198 kts 139°
2026-05-06 19:37 32.88580 75.04137 12609 ft 198 kts 139°
2026-05-06 19:37 32.87539 75.05213 12610 ft 198 kts 139°
2026-05-06 19:37 32.86499 75.06288 12610 ft 198 kts 139°
2026-05-06 19:37 32.85809 75.07002 12609 ft 198 kts 139°
2026-05-06 19:38 32.84418 75.08439 12609 ft 198 kts 139°
2026-05-06 19:38 32.83375 75.09516 12608 ft 198 kts 139°
2026-05-06 19:38 32.82334 75.10592 12608 ft 198 kts 139°
2026-05-06 19:38 32.81294 75.11667 12607 ft 198 kts 139°
2026-05-06 19:39 32.80412 75.12869 12605 ft 197 kts 115°
2026-05-06 19:39 32.79967 75.14410 12608 ft 197 kts 107°
2026-05-06 19:39 32.79574 75.15974 12608 ft 198 kts 107°
2026-05-06 19:39 32.79163 75.17535 12610 ft 198 kts 108°
2026-05-06 19:40 32.78544 75.19804 12607 ft 198 kts 108°
2026-05-06 19:40 32.76826 75.26022 12604 ft 198 kts 108°
2026-05-06 19:40 32.75109 75.32230 12606 ft 198 kts 108°
2026-05-06 19:40 32.73391 75.38450 12607 ft 198 kts 108°
2026-05-06 19:41 32.71145 75.44410 12600 ft 197 kts 116°
2026-05-06 19:41 32.68531 75.50123 12602 ft 197 kts 126°
2026-05-06 19:41 32.65048 75.55158 12608 ft 198 kts 130°
2026-05-06 19:41 32.61510 75.60168 12609 ft 198 kts 130°
2026-05-06 19:42 32.57967 75.65181 12606 ft 198 kts 130°
2026-05-06 19:42 32.54421 75.70203 12605 ft 198 kts 130°
2026-05-06 19:42 32.50878 75.75223 12605 ft 198 kts 130°
2026-05-06 19:42 32.47340 75.80238 12602 ft 198 kts 130°
2026-05-06 19:43 32.43807 75.85246 12605 ft 198 kts 130°
2026-05-06 19:43 32.40277 75.90249 12603 ft 198 kts 130°
2026-05-06 19:43 32.36750 75.95249 12607 ft 198 kts 130°
2026-05-06 19:43 32.33222 76.00247 12603 ft 198 kts 130°
2026-05-06 19:44 32.29701 76.05240 12598 ft 198 kts 130°
2026-05-06 19:44 32.26169 76.10248 12607 ft 198 kts 130°
2026-05-06 19:44 32.22634 76.15258 12607 ft 198 kts 130°
2026-05-06 19:44 32.19148 76.20202 12605 ft 198 kts 130°
2026-05-06 19:45 32.15623 76.25203 12605 ft 198 kts 130°
2026-05-06 19:45 32.12100 76.30205 12605 ft 198 kts 130°
2026-05-06 19:45 32.08798 76.35400 12607 ft 198 kts 121°
2026-05-06 19:45 32.06214 76.41141 12601 ft 198 kts 117°
2026-05-06 19:46 32.03733 76.46918 12602 ft 198 kts 117°
2026-05-06 19:46 32.01248 76.52707 12605 ft 198 kts 117°
2026-05-06 19:46 31.98764 76.58498 12606 ft 198 kts 117°
2026-05-06 19:46 31.97467 76.61526 12601 ft 198 kts 117°
2026-05-06 19:47 31.96860 76.62979 12600 ft 198 kts 112°
2026-05-06 19:47 31.96590 76.64560 12602 ft 198 kts 94°
2026-05-06 19:47 31.96519 76.66176 12601 ft 198 kts 92°
2026-05-06 19:47 31.96446 76.67795 12604 ft 198 kts 93°
2026-05-06 19:48 31.96362 76.69410 12604 ft 195 kts 94°
2026-05-06 19:48 31.96272 76.70985 12597 ft 190 kts 94°
2026-05-06 19:48 31.96182 76.72525 12592 ft 188 kts 94°
2026-05-06 19:48 31.96090 76.74058 12592 ft 187 kts 94°
2026-05-06 19:49 31.96000 76.75577 12591 ft 186 kts 94°
2026-05-06 19:49 31.95909 76.77089 12593 ft 185 kts 94°
2026-05-06 19:49 31.95820 76.78600 12592 ft 185 kts 94°
2026-05-06 19:49 31.95730 76.80110 12591 ft 185 kts 94°
2026-05-06 19:50 31.95640 76.81624 12591 ft 186 kts 94°
2026-05-06 19:50 31.95552 76.83137 12596 ft 185 kts 94°
2026-05-06 19:50 31.95464 76.84648 12593 ft 185 kts 94°
2026-05-06 19:50 31.95405 76.85648 12593 ft 185 kts 94°
2026-05-06 19:51 31.95315 76.87162 12593 ft 186 kts 94°
2026-05-06 19:51 31.95224 76.88678 12594 ft 186 kts 94°
2026-05-06 19:51 31.95080 76.90194 12594 ft 187 kts 98°
2026-05-06 19:51 31.94884 76.91702 12595 ft 186 kts 99°
2026-05-06 19:52 31.94683 76.93210 12595 ft 186 kts 99°
2026-05-06 19:52 31.94481 76.94721 12594 ft 187 kts 99°
2026-05-06 19:52 31.94279 76.96236 12599 ft 188 kts 99°
2026-05-06 19:52 31.94078 76.97754 12595 ft 187 kts 99°
2026-05-06 19:53 31.93878 76.99269 12597 ft 188 kts 99°
2026-05-06 19:53 31.93676 77.00788 12591 ft 188 kts 99°
2026-05-06 19:53 31.93475 77.02301 12593 ft 187 kts 99°
2026-05-06 19:53 31.93273 77.03808 12593 ft 186 kts 99°
2026-05-06 19:54 31.93073 77.05314 12597 ft 186 kts 99°
2026-05-06 19:54 31.92861 77.06749 12092 ft 175 kts 104°
2026-05-06 19:54 31.92390 77.08158 10685 ft 198 kts 118°
2026-05-06 19:54 31.91676 77.09645 9114 ft 216 kts 120°
2026-05-06 19:55 31.90902 77.11084 8385 ft 195 kts 124°
2026-05-06 19:55 31.90057 77.12223 7754 ft 177 kts 143°
2026-05-06 19:55 31.89002 77.12939 7030 ft 171 kts 155°
2026-05-06 19:55 31.87957 77.13518 6418 ft 167 kts 154°
2026-05-06 19:56 31.86952 77.14126 6032 ft 156 kts 155°
2026-05-06 19:56 31.86020 77.14614 5876 ft 133 kts 158°
2026-05-06 19:56 31.85167 77.15002 5831 ft 149 kts 163°
2026-05-06 19:56 31.84199 77.15347 5948 ft 139 kts 171°
2026-05-06 19:57 31.83394 77.15713 5763 ft 129 kts 127°
2026-05-06 19:57 31.83289 77.16783 4974 ft 152 kts 51°
2026-05-06 19:57 31.84220 77.17229 4543 ft 144 kts 352°
2026-05-06 19:57 31.85080 77.16766 4438 ft 131 kts 327°
2026-05-06 19:58 31.85810 77.16296 4236 ft 112 kts 335°
2026-05-06 19:58 31.86501 77.15971 3945 ft 104 kts 338°
2026-05-06 19:58 31.87142 77.15668 3713 ft 95 kts 338°
2026-05-06 19:58 31.87853 77.15358 3866 ft 115 kts 343°
2026-05-06 19:59 31.88668 77.15118 4229 ft 130 kts 352°
2026-05-06 19:59 31.89602 77.15116 4862 ft 142 kts 345°
2026-05-06 19:59 31.90213 77.14157 4976 ft 177 kts 266°
2026-05-06 19:59 31.89398 77.13132 5105 ft 187 kts 189°
2026-05-06 20:00 31.88169 77.13640 5180 ft 195 kts 146°
2026-05-06 20:00 31.87023 77.14569 5107 ft 205 kts 150°
2026-05-06 20:00 31.85719 77.15248 5103 ft 204 kts 162°
2026-05-06 20:00 31.84377 77.15710 5274 ft 197 kts 168°
2026-05-06 20:01 31.83055 77.15925 5576 ft 181 kts 175°
2026-05-06 20:01 31.81972 77.16325 5910 ft 159 kts 144°
2026-05-06 20:01 31.81228 77.17282 5795 ft 146 kts 111°
2026-05-06 20:01 31.81678 77.18111 5736 ft 141 kts
2026-05-06 20:02 31.82642 77.17898 5242 ft 144 kts 342°
2026-05-06 20:02 31.83566 77.17531 4848 ft 134 kts 338°
2026-05-06 20:02 31.84382 77.17135 4770 ft 113 kts 337°
2026-05-06 20:02 31.85101 77.16781 4416 ft 122 kts 335°
2026-05-06 20:03 31.85920 77.16348 3991 ft 124 kts 335°
2026-05-06 20:03 31.86621 77.15968 3918 ft 102 kts 335°
2026-05-06 20:03 31.87231 77.15650 3603 ft 87 kts 336°
2026-05-06 20:03 31.87659 77.15444 3561 ft 37 kts 337°
2026-05-06 20:04 31.87748 77.15356 3564 ft 13 kts 277°
2026-05-06 20:04 31.87736 77.15296 3560 ft 0 kts 250°
2026-05-06 20:04 31.87709 77.15268 3555 ft 1 kts 248°
2026-05-06 20:04 31.87709 77.15258 3554 ft 0 kts 296°
2026-05-06 20:05 31.87713 77.15254 3554 ft 2 kts 338°
2026-05-06 20:05 31.87715 77.15254 3554 ft 0 kts 351°
2026-05-06 20:06 31.87723 77.15256 3555 ft 4 kts 32°
2026-05-06 20:06 31.87748 77.15261 3557 ft 1 kts 348°
2026-05-06 20:06 31.87749 77.15261 3558 ft 0 kts 349°
2026-05-06 20:08 31.87756 77.15260 3558 ft 6 kts
2026-05-06 20:08 31.87786 77.15262 3560 ft 8 kts 344°
2026-05-06 20:08 31.87797 77.15248 3559 ft 0 kts 274°
2026-05-06 20:08 31.87798 77.15236 3557 ft 5 kts 292°
2026-05-06 20:09 31.87839 77.15191 3551 ft 11 kts 301°
2026-05-06 20:09 31.87808 77.15170 3545 ft 15 kts 147°
2026-05-06 20:09 31.87800 77.15179 3545 ft 0 kts 163°
2026-05-06 20:09 31.87813 77.15174 3545 ft 2 kts 163°
2026-05-06 20:10 31.87803 77.15215 3554 ft 3 kts 103°
2026-05-06 20:10 31.87802 77.15217 3554 ft 5 kts 114°
2026-05-06 20:10 31.87795 77.15232 3557 ft 5 kts 94°
2026-05-06 20:10 31.87795 77.15234 3557 ft 0 kts 92°